Weather History for Ogallala, NE

Change the Weather History Date:

Tuesday, February 12, 2013

  Actual Average Record
Temperature  
Mean Temperature 24 °F -  
Max Temperature 40 °F 41 °F 78 °F (1962)
Min Temperature 7 °F 14 °F -9 °F (1965)
Degree Days  
Heating Degree Days 42    
Moisture  
Dew Point 14 °F    
Average Humidity 68    
Maximum Humidity 89    
Minimum Humidity 39    
Precipitation  
Precipitation 0.00 in - - ()
Sea Level Pressure  
Sea Level Pressure 30.00 in    
Wind  
Wind Speed 7 mph (West)    
Max Wind Speed 16 mph    
Max Gust Speed 18 mph    
Visibility 10 miles    
Events      
Averages and records for this station are not official NWS values.
T = Trace of Precipitation, MM = Missing Value Source: NWS Daily Summary

Daily Weather History Graph

Daily Weather History Graph

Search for Another Location

Airport:

Trip Planner

Search our weather history database for the weather conditions in past years. The results will help you decide how hot, cold, wet, or windy it might be!

Date:

Astronomy

Feb. 12, 2013 Rise Set
Actual Time 6:45 AM MST 5:18 PM MST
Civil Twilight 6:16 AM MST 5:46 PM MST
Nautical Twilight 5:44 AM MST 6:18 PM MST
Astronomical Twilight 5:12 AM MST 6:50 PM MST
Moon 7:41 AM MST (2/12) 8:23 PM MST (2/12)
Length of Visible Light 11h 29m
Length of Day
10h 32m
Waxing Crescent, 8% of the Moon is Illuminated
Feb 12
Waxing Crescent
Feb 17
First Quarter
Feb 25
Full
Mar 4
Last Quarter
Mar 11
New

Hourly Weather History & Observations

Time (MST) Temp. Windchill Dew Point Humidity Pressure Visibility Wind Dir Wind Speed Gust Speed Precip Events Conditions
12:15 AM 10.4 °F 0.8 °F 7.3 °F 87% 30.05 in 10.0 mi WSW 5.8 mph - N/A   Clear
12:35 AM 10.6 °F -2.2 °F 7.2 °F 86% 30.03 in 10.0 mi WSW 9.2 mph - N/A   Clear
12:55 AM 11.5 °F 0.9 °F 8.4 °F 87% 30.03 in 10.0 mi WSW 6.9 mph - N/A   Clear
1:15 AM 10.9 °F 1.4 °F 7.3 °F 85% 30.02 in 10.0 mi WSW 5.8 mph - N/A   Clear
1:35 AM 11.7 °F 5.5 °F 8.1 °F 85% 30.03 in 10.0 mi SW 3.5 mph - N/A   Clear
1:55 AM 9.1 °F 0.8 °F 5.9 °F 87% 30.03 in 10.0 mi WSW 4.6 mph - N/A   Clear
2:15 AM 10.9 °F 4.7 °F 8.2 °F 89% 30.03 in 10.0 mi WNW 3.5 mph - N/A   Clear
2:35 AM 10.4 °F - 7.5 °F 88% 30.02 in 10.0 mi Calm Calm - N/A   Clear
2:55 AM 9.5 °F 1.2 °F 6.6 °F 88% 30.02 in 10.0 mi West 4.6 mph - N/A   Clear
3:15 AM 8.8 °F -2.4 °F 5.2 °F 85% 30.02 in 10.0 mi WSW 6.9 mph - N/A   Clear
3:35 AM 8.4 °F - 5.2 °F 87% 30.03 in 10.0 mi Calm Calm - N/A   Clear
3:55 AM 8.4 °F -2.8 °F 4.8 °F 85% 30.03 in 10.0 mi WSW 6.9 mph - N/A   Clear
4:15 AM 10.2 °F - 5.9 °F 83% 30.03 in 10.0 mi Calm Calm - N/A   Clear
4:35 AM 10.0 °F -2.9 °F 5.5 °F 82% 30.03 in 10.0 mi West 9.2 mph - N/A   Clear
4:55 AM 9.5 °F 1.2 °F 5.5 °F 84% 30.03 in 10.0 mi West 4.6 mph - N/A   Clear
5:15 AM 11.3 °F -0.4 °F 6.6 °F 81% 30.03 in 10.0 mi West 8.1 mph - N/A   Clear
5:35 AM 7.9 °F -6.4 °F 3.7 °F 83% 30.02 in 10.0 mi WSW 10.4 mph - N/A   Clear
5:55 AM 7.9 °F - 4.3 °F 85% 30.03 in 10.0 mi Calm Calm - N/A   Clear
6:15 AM 8.6 °F -3.7 °F 5.4 °F 87% 30.02 in 10.0 mi West 8.1 mph - N/A   Clear
6:35 AM 9.1 °F -4.0 °F 5.4 °F 85% 30.02 in 10.0 mi West 9.2 mph - N/A   Clear
6:55 AM 9.5 °F - 5.0 °F 82% 30.02 in 10.0 mi Calm Calm - N/A   Clear
7:15 AM 10.6 °F -0.2 °F 5.9 °F 81% 30.03 in 10.0 mi West 6.9 mph - N/A   Clear
7:35 AM 12.6 °F - 6.6 °F 77% 30.03 in 10.0 mi Calm Calm - N/A   Clear
7:55 AM 14.9 °F 5.0 °F 8.1 °F 74% 30.03 in 10.0 mi West 6.9 mph - N/A   Clear
8:15 AM 16.5 °F 4.3 °F 8.8 °F 72% 30.03 in 10.0 mi West 10.4 mph 16.1 mph N/A   Clear
8:35 AM 18.3 °F 6.6 °F 9.0 °F 67% 30.03 in 10.0 mi West 10.4 mph - N/A   Clear
8:55 AM 19.8 °F 7.7 °F 9.3 °F 64% 30.02 in 10.0 mi West 11.5 mph - N/A   Clear
9:15 AM 21.2 °F 8.9 °F 11.1 °F 65% 30.01 in 10.0 mi WSW 12.7 mph - N/A   Clear
9:35 AM 22.5 °F 11.1 °F 11.5 °F 63% 30.01 in 10.0 mi WSW 11.5 mph - N/A   Clear
9:55 AM 25.0 °F 13.6 °F 13.1 °F 61% 30.01 in 10.0 mi WSW 12.7 mph 16.1 mph N/A   Clear
10:15 AM 27.7 °F 18.2 °F 15.3 °F 60% 30.02 in 10.0 mi WSW 10.4 mph - N/A   Clear
10:35 AM 30.2 °F 21.9 °F 15.6 °F 55% 30.02 in 10.0 mi WSW 9.2 mph - N/A   Clear
10:55 AM 32.4 °F 23.5 °F 16.3 °F 52% 30.01 in 10.0 mi West 11.5 mph - N/A   Clear
11:15 AM 34.5 °F 24.5 °F 15.8 °F 46% 30.01 in 10.0 mi WNW 16.1 mph - N/A   Clear
11:35 AM 34.7 °F 25.5 °F 16.3 °F 47% 30.01 in 10.0 mi WNW 13.8 mph - N/A   Clear
11:55 AM 35.4 °F 26.8 °F 17.1 °F 47% 30.00 in 10.0 mi WNW 12.7 mph 17.3 mph N/A   Clear
12:15 PM 36.7 °F 28.9 °F 16.7 °F 44% 30.00 in 10.0 mi NW 11.5 mph 18.4 mph N/A   Clear
12:35 PM 37.8 °F 29.8 °F 16.2 °F 42% 30.00 in 10.0 mi NW 12.7 mph 18.4 mph N/A   Clear
12:55 PM 38.5 °F 30.7 °F 16.2 °F 40% 30.00 in 10.0 mi NW 12.7 mph - N/A   Clear
1:15 PM 39.2 °F 31.6 °F 16.7 °F 40% 30.00 in 10.0 mi NW 12.7 mph - N/A   Scattered Clouds
1:35 PM 38.7 °F 30.1 °F 16.7 °F 41% 29.99 in 10.0 mi NW 15.0 mph - N/A   Scattered Clouds
1:55 PM 40.1 °F 32.7 °F 17.1 °F 39% 29.99 in 10.0 mi NNW 12.7 mph - N/A   Clear
2:15 PM 39.4 °F 32.7 °F 17.4 °F 41% 29.99 in 10.0 mi NW 10.4 mph - N/A   Mostly Cloudy
2:35 PM 39.9 °F 32.9 °F 18.3 °F 42% 29.98 in 10.0 mi NNW 11.5 mph - N/A   Scattered Clouds
2:55 PM 40.3 °F 34.4 °F 18.0 °F 41% 29.99 in 10.0 mi NNW 9.2 mph - N/A   Clear
3:15 PM 40.5 °F 34.6 °F 18.0 °F 40% 29.99 in 10.0 mi NNW 9.2 mph - N/A   Clear
3:35 PM 40.6 °F 34.8 °F 19.0 °F 42% 29.99 in 10.0 mi North 9.2 mph - N/A   Clear
3:55 PM 40.3 °F 34.9 °F 20.1 °F 45% 29.99 in 10.0 mi NNW 8.1 mph - N/A   Clear
4:15 PM 37.8 °F 32.5 °F 21.2 °F 51% 29.99 in 10.0 mi NNW 6.9 mph - N/A   Scattered Clouds
4:35 PM 37.6 °F 34.0 °F 22.1 °F 54% 29.99 in 10.0 mi NNW 4.6 mph - N/A   Scattered Clouds
4:55 PM 38.1 °F 34.6 °F 21.9 °F 52% 29.98 in 10.0 mi NNW 4.6 mph - N/A   Mostly Cloudy
5:15 PM 35.6 °F 31.7 °F 23.5 °F 62% 29.98 in 10.0 mi WNW 4.6 mph - N/A   Overcast
5:35 PM 35.6 °F 30.7 °F 22.8 °F 60% 29.98 in 10.0 mi SW 5.8 mph - N/A   Overcast
5:55 PM 34.3 °F 29.2 °F 23.2 °F 64% 29.99 in 10.0 mi West 5.8 mph - N/A   Overcast
6:15 PM 29.8 °F 26.3 °F 22.6 °F 75% 29.99 in 10.0 mi WNW 3.5 mph - N/A   Mostly Cloudy
6:35 PM 27.9 °F - 21.0 °F 75% 29.98 in 10.0 mi Calm Calm - N/A   Scattered Clouds
7:15 PM 26.8 °F 17.7 °F 20.8 °F 78% 29.98 in 10.0 mi WSW 9.2 mph - N/A   Clear
7:18 PM 24.8 °F 16.9 °F 19.4 °F 80% 29.98 in 10.0 mi West 6.9 mph - N/A   Clear
7:35 PM 24.4 °F 16.5 °F 19.6 °F 82% 29.98 in 10.0 mi West 6.9 mph - N/A   Clear
7:55 PM 25.0 °F 16.3 °F 19.9 °F 81% 29.98 in 10.0 mi WSW 8.1 mph - N/A   Clear
8:15 PM 23.0 °F 15.8 °F 18.3 °F 82% 29.98 in 10.0 mi WSW 5.8 mph - N/A   Clear
8:35 PM 21.9 °F 14.5 °F 17.8 °F 84% 29.99 in 10.0 mi West 5.8 mph - N/A   Clear
8:55 PM 24.4 °F 14.2 °F 18.3 °F 78% 29.99 in 10.0 mi WSW 10.4 mph - N/A   Clear
9:15 PM 26.8 °F 18.5 °F 17.8 °F 69% 30.00 in 10.0 mi WSW 8.1 mph - N/A   Clear
9:35 PM 27.5 °F 18.6 °F 18.0 °F 67% 29.98 in 10.0 mi WSW 9.2 mph - N/A   Clear
9:55 PM 26.8 °F 21.4 °F 17.6 °F 68% 29.98 in 10.0 mi West 4.6 mph - N/A   Clear
10:15 PM 26.6 °F 20.0 °F 17.4 °F 68% 29.98 in 10.0 mi WSW 5.8 mph - N/A   Clear
10:35 PM 26.6 °F 20.0 °F 18.1 °F 70% 29.98 in 10.0 mi WSW 5.8 mph - N/A   Scattered Clouds
10:55 PM 27.1 °F 18.9 °F 18.0 °F 68% 29.97 in 10.0 mi SW 8.1 mph - N/A   Scattered Clouds
11:15 PM 28.0 °F 17.5 °F 18.1 °F 66% 29.98 in 10.0 mi West 12.7 mph 17.3 mph N/A   Clear
11:35 PM 26.6 °F 22.6 °F 17.6 °F 69% 29.98 in 10.0 mi WSW 3.5 mph - N/A   Clear
11:55 PM 27.0 °F 18.7 °F 16.9 °F 66% 29.97 in 10.0 mi WSW 8.1 mph - N/A   Clear